2016-10-10 00:06:52 r, 16.97m,0000000015Hz,0000032011c,0000000.069s, 027.3C,00002195
2016-10-10 00:16:52 r, 17.38m,0000000010Hz,0000046400c,0000000.101s, 027.3C,00002195
2016-10-10 00:26:54 r, 17.95m,0000000006Hz,0000078774c,0000000.171s, 027.3C,00002195
2016-10-10 00:36:52 r, 17.30m,0000000010Hz,0000043391c,0000000.094s, 027.3C,00002195
2016-10-10 00:46:52 r, 16.78m,0000000018Hz,0000026855c,0000000.058s, 027.0C,00002195
2016-10-10 00:56:52 r, 16.72m,0000000018Hz,0000025372c,0000000.055s, 027.3C,00002195
2016-10-10 01:06:53 r, 16.47m,0000000022Hz,0000020143c,0000000.044s, 027.3C,00002195
2016-10-10 01:16:53 r, 16.75m,0000000018Hz,0000026028c,0000000.056s, 027.3C,00002195
2016-10-10 01:26:52 r, 16.96m,0000000015Hz,0000031666c,0000000.069s, 027.3C,00002195
2016-10-10 01:36:53 r, 17.51m,0000000008Hz,0000052572c,0000000.114s, 027.7C,00002195
2016-10-10 01:46:52 r, 16.98m,0000000015Hz,0000032277c,0000000.070s, 027.7C,00002195
2016-10-10 01:56:52 r, 16.79m,0000000017Hz,0000027038c,0000000.059s, 027.7C,00002195
2016-10-10 02:06:52 r, 17.34m,0000000010Hz,0000045015c,0000000.098s, 027.7C,00002195
2016-10-10 02:16:52 r, 17.46m,0000000009Hz,0000050003c,0000000.109s, 027.7C,00002195
2016-10-10 02:26:53 r, 16.98m,0000000014Hz,0000032150c,0000000.070s, 027.3C,00002195
2016-10-10 02:36:52 r, 16.84m,0000000016Hz,0000028200c,0000000.061s, 027.3C,00002195
2016-10-10 02:46:52 r, 16.84m,0000000016Hz,0000028342c,0000000.062s, 027.3C,00002195
2016-10-10 02:56:53 r, 17.33m,0000000011Hz,0000044350c,0000000.096s, 027.3C,00002195
2016-10-10 03:06:53 r, 17.22m,0000000012Hz,0000040216c,0000000.087s, 027.3C,00002195
2016-10-10 03:16:52 r, 16.74m,0000000017Hz,0000025967c,0000000.056s, 027.3C,00002195
2016-10-10 03:26:52 r, 16.34m,0000000026Hz,0000018044c,0000000.039s, 027.3C,00002195
2016-10-10 03:36:53 r, 16.72m,0000000018Hz,0000025271c,0000000.055s, 027.3C,00002195
2016-10-10 03:46:53 r, 16.79m,0000000016Hz,0000027170c,0000000.059s, 027.3C,00002195
2016-10-10 03:56:52 r, 17.01m,0000000014Hz,0000033328c,0000000.072s, 027.3C,00002195
2016-10-10 04:06:53 r, 17.34m,0000000010Hz,0000044903c,0000000.097s, 027.3C,00002195
2016-10-10 04:16:53 r, 17.03m,0000000013Hz,0000033608c,0000000.073s, 027.0C,00002195
2016-10-10 04:26:52 r, 17.25m,0000000011Hz,0000041223c,0000000.089s, 027.0C,00002195
2016-10-10 04:36:52 r, 17.50m,0000000009Hz,0000051800c,0000000.112s, 027.0C,00002195
2016-10-10 04:46:52 r, 17.46m,0000000009Hz,0000050068c,0000000.109s, 026.7C,00002195
2016-10-10 04:56:52 r, 16.29m,0000000027Hz,0000017117c,0000000.037s, 026.4C,00002195
2016-10-10 05:06:53 r, 16.72m,0000000019Hz,0000025464c,0000000.055s, 026.4C,00002195
2016-10-10 05:16:52 r, 16.78m,0000000017Hz,0000026813c,0000000.058s, 026.1C,00002195
2016-10-10 05:26:52 r, 16.42m,0000000024Hz,0000019206c,0000000.042s, 025.7C,00002195
2016-10-10 05:36:53 r, 16.35m,0000000025Hz,0000018104c,0000000.039s, 025.7C,00002195
2016-10-10 05:46:52 r, 16.29m,0000000027Hz,0000017197c,0000000.037s, 025.7C,00002195
2016-10-10 05:56:53 r, 16.04m,0000000034Hz,0000013534c,0000000.029s, 025.4C,00002195
2016-10-10 06:06:53 r, 16.74m,0000000019Hz,0000025846c,0000000.056s, 025.4C,00002195
2016-10-10 06:16:52 r, 16.63m,0000000019Hz,0000023344c,0000000.051s, 025.1C,00002195
2016-10-10 06:26:52 r, 16.71m,0000000018Hz,0000025146c,0000000.055s, 025.1C,00002195
2016-10-10 06:36:52 r, 16.73m,0000000018Hz,0000025527c,0000000.055s, 024.8C,00002195
2016-10-10 06:46:52 r, 16.68m,0000000018Hz,0000024351c,0000000.053s, 024.4C,00002195
2016-10-10 06:56:53 r, 15.81m,0000000042Hz,0000010992c,0000000.024s, 024.1C,00002195
2016-10-10 07:06:53 r, 14.07m,0000000210Hz,0000000000c,0000000.000s, 023.8C,00002195
2016-10-10 07:16:52 r, 12.08m,0000001318Hz,0000000000c,0000000.000s, 023.5C,00002195
2016-10-10 07:26:54 r, 10.01m,0000008862Hz,0000000000c,0000000.000s, 023.5C,00002195
2016-10-10 07:36:53 r, 08.44m,0000037393Hz,0000000000c,0000000.000s, 023.5C,00002195
2016-10-10 07:46:52 r, 07.41m,0000096651Hz,0000000000c,0000000.000s, 023.5C,00002195
2016-10-10 07:56:53 r, 07.08m,0000131496Hz,0000000000c,0000000.000s, 023.2C,00002195
2016-10-10 08:06:53 r, 05.92m,0000381727Hz,0000000000c,0000000.000s, 023.5C,00002195
2016-10-10 08:16:52 r, 00.00m,0000521035Hz,0000000000c,0000000.000s, 023.5C,00002195
2016-10-10 08:26:52 r, 00.00m,0000563673Hz,0000000000c,0000000.000s, 023.5C,00002195
2016-10-10 08:36:52 r, 00.00m,0000563748Hz,0000000000c,0000000.000s, 023.5C,00002195
2016-10-10 08:46:52 r, 00.00m,0000563774Hz,0000000000c,0000000.000s, 023.8C,00002195
2016-10-10 08:56:52 r, 00.00m,0000563726Hz,0000000000c,0000000.000s, 023.8C,00002195
2016-10-10 09:06:53 r, 00.00m,0000563756Hz,0000000000c,0000000.000s, 024.1C,00002195
2016-10-10 09:16:52 r, 00.00m,0000563789Hz,0000000000c,0000000.000s, 024.4C,00002195
2016-10-10 09:26:52 r, 00.00m,0000563946Hz,0000000000c,0000000.000s, 024.8C,00002195
2016-10-10 09:36:53 r, 00.00m,0000563938Hz,0000000000c,0000000.000s, 024.8C,00002195
2016-10-10 09:46:52 r, 00.00m,0000563918Hz,0000000000c,0000000.000s, 025.1C,00002195
2016-10-10 09:56:52 r, 00.00m,0000563989Hz,0000000000c,0000000.000s, 025.4C,00002195
2016-10-10 10:06:53 r, 00.00m,0000563950Hz,0000000000c,0000000.000s, 025.4C,00002195
2016-10-10 10:16:52 r, 00.00m,0000563941Hz,0000000000c,0000000.000s, 025.4C,00002195
2016-10-10 10:26:52 r, 00.00m,0000564077Hz,0000000000c,0000000.000s, 026.1C,00002195
2016-10-10 10:36:52 r, 00.00m,0000564181Hz,0000000000c,0000000.000s, 026.4C,00002195
2016-10-10 10:46:55 r, 00.00m,0000564214Hz,0000000000c,0000000.000s, 027.0C,00002195
2016-10-10 10:56:52 r, 00.00m,0000564220Hz,0000000000c,0000000.000s, 027.0C,00002195
2016-10-10 11:06:52 r, 00.00m,0000564210Hz,0000000000c,0000000.000s, 027.3C,00002195
2016-10-10 11:16:53 r, 00.00m,0000564287Hz,0000000000c,0000000.000s, 028.0C,00002195
2016-10-10 11:26:53 r, 00.00m,0000564164Hz,0000000000c,0000000.000s, 027.7C,00002195
2016-10-10 11:36:52 r, 00.00m,0000564176Hz,0000000000c,0000000.000s, 027.0C,00002195
2016-10-10 11:46:52 r, 00.00m,0000564162Hz,0000000000c,0000000.000s, 027.3C,00002195
2016-10-10 11:56:52 r, 00.00m,0000564307Hz,0000000000c,0000000.000s, 028.3C,00002195
2016-10-10 12:06:52 r, 00.00m,0000564441Hz,0000000000c,0000000.000s, 028.6C,00002195
2016-10-10 12:16:55 r, 00.00m,0000564329Hz,0000000000c,0000000.000s, 028.6C,00002195
2016-10-10 12:26:52 r, 00.00m,0000564384Hz,0000000000c,0000000.000s, 028.6C,00002195
2016-10-10 12:36:52 r, 00.00m,0000564295Hz,0000000000c,0000000.000s, 028.6C,00002195
2016-10-10 12:46:52 r, 00.00m,0000564276Hz,0000000000c,0000000.000s, 028.3C,00002195
2016-10-10 12:56:52 r, 00.00m,0000564415Hz,0000000000c,0000000.000s, 029.0C,00002195
2016-10-10 13:06:52 r, 00.00m,0000564429Hz,0000000000c,0000000.000s, 029.0C,00002195
2016-10-10 13:16:52 r, 00.00m,0000564431Hz,0000000000c,0000000.000s, 029.3C,00002195
2016-10-10 13:26:52 r, 00.00m,0000564536Hz,0000000000c,0000000.000s, 030.2C,00002195
2016-10-10 13:36:52 r, 00.00m,0000564715Hz,0000000000c,0000000.000s, 031.2C,00002195
2016-10-10 13:46:52 r, 00.00m,0000564537Hz,0000000000c,0000000.000s, 030.6C,00002195
2016-10-10 13:56:52 r, 00.00m,0000564407Hz,0000000000c,0000000.000s, 029.6C,00002195
2016-10-10 14:06:52 r, 00.00m,0000564303Hz,0000000000c,0000000.000s, 029.0C,00002195
2016-10-10 14:16:52 r, 00.00m,0000564277Hz,0000000000c,0000000.000s, 028.6C,00002195
2016-10-10 14:26:52 r, 00.00m,0000564422Hz,0000000000c,0000000.000s, 029.0C,00002195
2016-10-10 14:36:52 r, 00.00m,0000564401Hz,0000000000c,0000000.000s, 029.3C,00002195
2016-10-10 14:46:52 r, 00.00m,0000564369Hz,0000000000c,0000000.000s, 029.3C,00002195
2016-10-10 14:56:52 r, 00.00m,0000564415Hz,0000000000c,0000000.000s, 029.3C,00002195
2016-10-10 15:06:53 r, 00.00m,0000564338Hz,0000000000c,0000000.000s, 029.0C,00002195
2016-10-10 15:16:52 r, 00.00m,0000564299Hz,0000000000c,0000000.000s, 029.3C,00002195
2016-10-10 15:26:52 r, 00.00m,0000564321Hz,0000000000c,0000000.000s, 029.3C,00002195
2016-10-10 15:36:55 r, 00.00m,0000564523Hz,0000000000c,0000000.000s, 029.9C,00002195
2016-10-10 15:46:53 r, 00.00m,0000564448Hz,0000000000c,0000000.000s, 029.6C,00002195
2016-10-10 15:56:52 r, 00.00m,0000564318Hz,0000000000c,0000000.000s, 029.0C,00002195
2016-10-10 16:06:52 r, 00.00m,0000564303Hz,0000000000c,0000000.000s, 028.6C,00002195
2016-10-10 16:16:53 r, 00.00m,0000564333Hz,0000000000c,0000000.000s, 028.3C,00002195
2016-10-10 16:26:52 r, 00.00m,0000564265Hz,0000000000c,0000000.000s, 028.0C,00002195
2016-10-10 16:36:52 r, 00.00m,0000564150Hz,0000000000c,0000000.000s, 027.7C,00002195
2016-10-10 16:46:52 r, 00.00m,0000564208Hz,0000000000c,0000000.000s, 027.7C,00002195
2016-10-10 16:56:52 r, 00.00m,0000564159Hz,0000000000c,0000000.000s, 027.3C,00002195
2016-10-10 17:06:52 r, 00.00m,0000564077Hz,0000000000c,0000000.000s, 027.0C,00002195
2016-10-10 17:16:52 r, 00.00m,0000564014Hz,0000000000c,0000000.000s, 026.7C,00002195
2016-10-10 17:26:52 r, 00.00m,0000563986Hz,0000000000c,0000000.000s, 026.1C,00002195
2016-10-10 17:36:52 r, 00.00m,0000563952Hz,0000000000c,0000000.000s, 025.7C,00002195
2016-10-10 17:46:52 r, 00.00m,0000563874Hz,0000000000c,0000000.000s, 025.4C,00002195
2016-10-10 17:56:52 r, 00.00m,0000563903Hz,0000000000c,0000000.000s, 025.4C,00002195
2016-10-10 18:06:55 r, 00.00m,0000563729Hz,0000000000c,0000000.000s, 025.1C,00002195
2016-10-10 18:16:53 r, 05.94m,0000374505Hz,0000000000c,0000000.000s, 024.8C,00002195
2016-10-10 18:26:53 r, 06.33m,0000260866Hz,0000000000c,0000000.000s, 024.4C,00002195
2016-10-10 18:36:52 r, 06.92m,0000151735Hz,0000000000c,0000000.000s, 023.8C,00002195
2016-10-10 18:46:53 r, 07.69m,0000075196Hz,0000000000c,0000000.000s, 023.8C,00002195
2016-10-10 18:56:52 r, 08.71m,0000029228Hz,0000000000c,0000000.000s, 023.5C,00002195
2016-10-10 19:06:52 r, 10.53m,0000005488Hz,0000000000c,0000000.000s, 023.5C,00002195
2016-10-10 19:16:52 r, 12.54m,0000000857Hz,0000000000c,0000000.000s, 023.5C,00002195
2016-10-10 19:26:52 r, 14.45m,0000000148Hz,0000000000c,0000000.000s, 023.5C,00002195
2016-10-10 19:36:52 r, 15.83m,0000000042Hz,0000011137c,0000000.024s, 023.5C,00002195
2016-10-10 19:46:52 r, 16.26m,0000000028Hz,0000016731c,0000000.036s, 023.5C,00002195
2016-10-10 19:56:52 r, 16.04m,0000000034Hz,0000013674c,0000000.030s, 023.5C,00002195
2016-10-10 20:06:55 r, 16.00m,0000000035Hz,0000013098c,0000000.028s, 023.5C,00002195
2016-10-10 20:16:52 r, 15.97m,0000000036Hz,0000012739c,0000000.028s, 023.5C,00002195
2016-10-10 20:26:52 r, 15.78m,0000000043Hz,0000010723c,0000000.023s, 023.2C,00002195
2016-10-10 20:36:52 r, 16.17m,0000000030Hz,0000015234c,0000000.033s, 023.2C,00002195
2016-10-10 20:46:53 r, 16.64m,0000000020Hz,0000023554c,0000000.051s, 023.2C,00002195
2016-10-10 20:56:52 r, 16.52m,0000000022Hz,0000021225c,0000000.046s, 022.8C,00002195
2016-10-10 21:06:52 r, 16.07m,0000000033Hz,0000014014c,0000000.030s, 022.8C,00002195
2016-10-10 21:16:52 r, 15.59m,0000000052Hz,0000009013c,0000000.020s, 022.5C,00002195
2016-10-10 21:26:52 r, 15.74m,0000000044Hz,0000010255c,0000000.022s, 022.5C,00002195
2016-10-10 21:36:52 r, 15.36m,0000000063Hz,0000007249c,0000000.016s, 022.5C,00002195
2016-10-10 21:46:52 r, 15.40m,0000000061Hz,0000007521c,0000000.016s, 022.5C,00002195
2016-10-10 21:56:52 r, 15.36m,0000000063Hz,0000007294c,0000000.016s, 022.2C,00002195
2016-10-10 22:06:53 r, 15.50m,0000000056Hz,0000008243c,0000000.018s, 022.2C,00002195
2016-10-10 22:16:52 r, 15.37m,0000000063Hz,0000007332c,0000000.016s, 022.2C,00002195
2016-10-10 22:26:53 r, 15.88m,0000000039Hz,0000011658c,0000000.025s, 022.2C,00002195
2016-10-10 22:36:52 r, 15.69m,0000000047Hz,0000009874c,0000000.021s, 022.2C,00002195
2016-10-10 22:46:54 r, 15.59m,0000000051Hz,0000008970c,0000000.019s, 022.2C,00002195
2016-10-10 22:56:52 r, 15.99m,0000000036Hz,0000012953c,0000000.028s, 022.2C,00002195
2016-10-10 23:06:52 r, 16.29m,0000000027Hz,0000017247c,0000000.037s, 022.2C,00002195
2016-10-10 23:16:52 r, 16.12m,0000000032Hz,0000014552c,0000000.032s, 022.2C,00002195
2016-10-10 23:26:52 r, 15.68m,0000000047Hz,0000009771c,0000000.021s, 022.5C,00002195
2016-10-10 23:36:52 r, 16.00m,0000000035Hz,0000013129c,0000000.028s, 022.5C,00002195
2016-10-10 23:46:52 r, 16.15m,0000000031Hz,0000015078c,0000000.033s, 022.5C,00002195
2016-10-10 23:56:52 r, 16.17m,0000000030Hz,0000015268c,0000000.033s, 022.5C,00002195
